Home > Weather > Theni > Past weeks

Flag for India Weather for the Past 2 Weeks in Theni, Tamil Nadu, India

Now
81 °F

Haze.


Feels Like: 82 °F
Forecast: 66 / 94 °F
Wind: No wind

Location: Coimbatore / Peelamedu

Current Time: Feb 9, 2016 at 9:53:19 PM

Latest Report: Feb 9, 2016 at 9:30 PM


Visibility: 3 mi

Pressure: 29.98 "Hg

Humidity: 58%

Dew point: 64 °F

Location of TheniLocation

Historic Weather in Theni — Graph

°F

Theni Temperature Yesterday

Maximum temperature yesterday: 88 °F (at 2:30 PM)
Minimum temperature yesterday: 73 °F (at 4:00 AM)
Average temperature yesterday: 81 °F

High & Low Weather Summary for the Past Weeks

 TemperatureHumidityPressure
High91 °F (Jan 28, 2:30 PM)88% (Feb 1, 7:30 AM)30.09 "Hg (Feb 1, 7:30 AM)
Low64 °F (Feb 2, 7:00 AM)15% (Feb 2, 3:30 PM)29.86 "Hg (Feb 6, 2:30 PM)
Average80 °F54%29.99 "Hg
* Reported Jan 25 8:30 PM — Feb 9 9:00 PM, Theni, Weather by CustomWeather, © 2016

Note: Actual official high and low records may vary slightly from our data, if they occured in-between our weather recording intervals... More about our weather records

Advertising

Theni Weather History for the Previous 24 Hours

 ConditionsComfort  
Time TempWeatherWind HumidityBarometerVisibility
9:00 PM
Tue, Feb 9
82 °FHaze.No wind55%29.95 "Hg3 mi
8:30 PM82 °FHaze.No wind55%29.95 "Hg3 mi
8:00 PM84 °FHaze.No wind51%29.95 "Hg3 mi
7:30 PM84 °FHaze.5 mph48%29.92 "Hg3 mi
7:00 PM86 °FHaze.5 mph46%29.92 "Hg3 mi
6:30 PM88 °FHaze.5 mph43%29.89 "Hg3 mi
6:00 PM88 °FPassing clouds.5 mph43%29.89 "Hg4 mi
5:30 PM90 °FPassing clouds.3 mph41%29.89 "Hg4 mi
5:00 PM88 °FPassing clouds.7 mph46%29.86 "Hg4 mi
3:30 PM90 °FPassing clouds.6 mph43%29.89 "Hg4 mi
3:00 PM90 °FPassing clouds.2 mph43%29.89 "Hg4 mi
2:30 PM90 °FHaze.7 mph43%29.92 "Hg3 mi
1:30 PM88 °FHaze.3 mph46%29.95 "Hg3 mi
1:00 PM86 °FScattered clouds.5 mph52%29.95 "Hg2 mi
12:30 PM84 °FScattered clouds.3 mph55%29.98 "Hg2 mi
12:00 PM82 °FScattered clouds.3 mph55%30.01 "Hg2 mi
11:30 AM82 °FScattered clouds.5 mph58%30.01 "Hg2 mi
11:00 AM81 °FScattered clouds.6 mph62%30.04 "Hg2 mi
10:30 AM79 °FScattered clouds.6 mph70%30.04 "Hg2 mi
10:00 AM77 °FScattered clouds.6 mph74%30.04 "Hg2 mi
9:30 AM77 °FFog.5 mph74%30.04 "Hg2 mi
9:00 AM75 °FFog.6 mph78%30.04 "Hg2 mi
8:30 AM75 °FFog.5 mph78%30.04 "Hg2 mi
7:30 AM73 °FFog.3 mph83%30.01 "Hg2 mi
7:00 AM73 °FFog.3 mph83%30.01 "Hg2 mi
6:30 AM73 °FFog.5 mph83%29.98 "Hg2 mi
6:00 AM73 °FFog.No wind83%29.98 "Hg2 mi
5:30 AM73 °FFog.No wind78%29.98 "Hg2 mi
4:30 AM75 °FFog.No wind78%29.95 "Hg2 mi
3:30 AM75 °FFog.5 mph78%29.95 "Hg2 mi
2:30 AM75 °FFog.5 mph78%29.95 "Hg2 mi
11:30 PM
Mon, Feb 8
79 °FHaze.No wind54%29.98 "Hg3 mi
10:30 PM82 °FHaze.3 mph58%30.01 "Hg3 mi
10:00 PM82 °FHaze.6 mph58%30.01 "Hg3 mi
9:30 PM82 °FHaze.6 mph58%30.01 "Hg3 mi
9:00 PM82 °FHaze.3 mph58%29.98 "Hg3 mi
Weather by CustomWeather, © 2016

See weather overviewHow to use our weather pages